Flag for Finland Weather past 2 weeks in Joensuu, Finland

Now
57 °F

Passing clouds.


Feels Like: 57 °F
Forecast: 49 / 61 °F
Wind: 5 mph from Southeast

Location: Joensuu Airport

Current Time: Sep 17, 2014 at 12:51:03 PM

Latest Report: Sep 17, 2014 at 12:20 PM


Visibility: N/A

Pressure: 30.36 "Hg

Humidity: 72%

Dew point: 48 °F

Location of JoensuuLocation

Historic Weather in Joensuu — Graph

°F

Joensuu temperature yesterday

Maximum temperature yesterday: 61 °F (at 3:50 PM)
Minimum temperature yesterday: 37 °F (at 3:20 AM)
Average temperature yesterday: 48 °F

Past Weeks' High & Low Weather Summary

 TemperatureHumidityPressure
High70 °F (Sep 4, 3:20 PM)100% (Sep 3, 5:20 AM)30.42 "Hg (Sep 3, 5:20 AM)
Low36 °F (Sep 17, 5:20 AM)36% (Sep 15, 3:50 PM)29.98 "Hg (Sep 9, 6:20 PM)
Average54 °F83%30.20 "Hg
* Reported Sep 2 11:20 AM — Sep 17 11:50 AM, Joensuu, Weather by CustomWeather, © 2014

Note: Actual official high and low records may vary slightly from our data, if they occured in-between our weather recording intervals... More about our weather records

Advertising

Joensuu weather history for previous 24 hours

 ConditionsComfort  
Time TempWeatherWind HumidityBarometerVisibility
11:50 AM
Sep 17
57 °FPassing clouds.5 mph72%30.36 "HgN/A
11:20 AM55 °FPassing clouds.3 mph77%30.36 "HgN/A
10:50 AM54 °FPassing clouds.5 mph77%30.36 "HgN/A
10:20 AM54 °FSunny.3 mph82%30.36 "Hg10 mi
9:50 AM52 °FSunny.2 mph88%30.36 "Hg10 mi
9:20 AM48 °FLight fog.2 mph100%30.36 "HgN/A
8:50 AM43 °FFog.No wind100%30.36 "Hg1 mi
8:20 AM39 °FFog.2 mph100%30.36 "Hg1 mi
7:50 AM36 °FFog.2 mph100%30.36 "Hg2 mi
7:20 AM37 °FLight fog.1 mph100%30.36 "HgN/A
6:50 AM36 °FLight fog.No wind100%30.36 "HgN/A
6:20 AM37 °FLight fog.No wind93%30.36 "HgN/A
5:50 AM37 °FLight fog.No wind100%30.36 "HgN/A
5:20 AM36 °FClear.No wind100%30.39 "Hg10 mi
4:50 AM37 °FClear.No wind100%30.39 "Hg10 mi
4:20 AM37 °FFog.No wind100%30.39 "Hg2 mi
3:50 AM39 °FClear.No wind100%30.39 "Hg10 mi
3:20 AM39 °FClear.No wind100%30.39 "Hg10 mi
2:50 AM39 °FClear.No wind100%30.39 "Hg10 mi
2:20 AM37 °FFog.No wind100%30.39 "Hg1 mi
1:50 AM39 °FFog.No wind100%30.39 "Hg3 mi
1:20 AM39 °FClear.No wind100%30.39 "Hg10 mi
12:50 AM39 °FClear.2 mph100%30.39 "Hg4 mi
12:20 AM39 °FClear.2 mph100%30.39 "Hg10 mi
11:50 PM
Sep 16
39 °FClear.1 mph100%30.39 "Hg10 mi
11:20 PM41 °FFog.No wind93%30.39 "Hg2 mi
10:50 PM39 °FClear.No wind100%30.39 "Hg10 mi
10:20 PM43 °FClear.No wind100%30.39 "Hg10 mi
9:50 PM45 °FClear.No wind93%30.39 "Hg10 mi
9:20 PM43 °FClear.1 mph93%30.39 "Hg10 mi
8:50 PM45 °FClear.1 mph93%30.39 "Hg10 mi
8:20 PM45 °FSunny.No wind93%30.39 "Hg10 mi
7:50 PM46 °FSunny.1 mph87%30.39 "Hg10 mi
7:20 PM50 °FSunny.No wind82%30.39 "Hg10 mi
6:50 PM52 °FSunny.2 mph72%30.39 "Hg10 mi
6:20 PM57 °FSunny.1 mph59%30.39 "Hg10 mi
5:50 PM61 °FSunny.3 mph45%30.39 "Hg10 mi
5:20 PM61 °FSunny.2 mph45%30.39 "Hg10 mi
4:50 PM61 °FSunny.2 mph48%30.39 "Hg10 mi
4:20 PM61 °FSunny.5 mph45%30.39 "Hg10 mi
3:50 PM61 °FPassing clouds.6 mph45%30.39 "HgN/A
3:20 PM59 °FPassing clouds.6 mph48%30.42 "HgN/A
2:50 PM59 °FPassing clouds.6 mph51%30.42 "HgN/A
2:20 PM59 °FSunny.3 mph48%30.42 "Hg10 mi
1:50 PM59 °FPassing clouds.6 mph48%30.42 "HgN/A
1:20 PM57 °FPassing clouds.6 mph51%30.42 "HgN/A
12:50 PM57 °FPassing clouds.7 mph55%30.42 "HgN/A
12:20 PM57 °FPassing clouds.6 mph55%30.42 "HgN/A
Weather by CustomWeather, © 2014

See weather overviewHow to use our weather pages